Location: Hilton Head Island
(32.2163°N, 80.7526°W)
Time: 08:11:03
(UTC-04:00)

Vanguard 2 Rocket - Pass Details

Date: 17 February 2026
Orbit: 553 x 3286 km, 32.9° (Epoch: 16 March)

Event Time Altitude Azimuth Distance (km) Brightness Sun altitude
Rises 15:59:51 0° 274° (W) 6,806 12.1 24.6°
Reaches altitude 10° 16:04:55 10° 275° (W) 5,468 11.8 23.7°
Maximum altitude 16:20:00 89° 4° (N) 1,781 8.7 21.0°
Drops below altitude 10° 16:28:14 10° 97° (E) 3,163 9.3 19.4°
Sets 16:30:25 0° 97° (E) 3,872 9.7 19.0°
